Pauls Valley, OK

3:50 PM CDT on September 20, 2017 (GMT -0500)
Pauls Valley Municipal

Weather History for KPVJ - April, 2013

Change the Weather History Date:

Saturday, April 6, 2013

  Actual Average (KADH) Record (KADH)
Temperature  
Mean Temperature 63 °F -  
Max Temperature 73 °F 72 °F 92 °F (1960)
Min Temperature 53 °F 44 °F 29 °F (1971)
Degree Days  
Heating Degree Days 2    
Growing Degree Days 13 (Base 50)    
Moisture  
Dew Point 49 °F    
Average Humidity 61    
Maximum Humidity 77    
Minimum Humidity 44    
Precipitation  
Precipitation 0.00 in - - ()
Sea Level Pressure  
Sea Level Pressure 29.88 in    
Wind  
Wind Speed 14 mph (South)    
Max Wind Speed 24 mph    
Max Gust Speed 31 mph    
Visibility 10 miles    
Events      
Averages and records for this station are not official NWS values.
T = Trace of Precipitation, MM = Missing Value Source: NWS Daily Summary

Daily Weather History Graph

Daily Weather History Graph

Search for Another Location

Airport or City:

Trip Planner

Search our weather history database for the weather conditions in past years. The results will help you decide how hot, cold, wet, or windy it might be!

Date:

Astronomy

Apr. 06, 2013 Rise Set
Actual Time 7:08 AM CDT 7:54 PM CDT
Civil Twilight 6:43 AM CDT 8:19 PM CDT
Nautical Twilight 6:13 AM CDT 8:50 PM CDT
Astronomical Twilight 5:42 AM CDT 9:21 PM CDT
Moon 4:44 AM CDT (4/6) 4:31 PM CDT (4/6)
Length of Visible Light 13h 36m
Length of Day
12h 45m
Waning Crescent, 15% of the Moon is Illuminated
Apr 6
Waning Crescent
Apr 10
New
Apr 18
First Quarter
Apr 25
Full
May 2
Last Quarter

Hourly Weather History & Observations

Time (CDT) Temp. Dew Point Humidity Pressure Visibility Wind Dir Wind Speed Gust Speed Precip Events Conditions
12:15 AM 55.4 °F 44.6 °F 67% 29.96 in 10.0 mi South 12.7 mph 18.4 mph N/A   Unknown
12:35 AM 55.4 °F 44.6 °F 67% 29.96 in 10.0 mi South 15.0 mph 20.7 mph N/A   Unknown
12:55 AM 55.4 °F 46.4 °F 72% 29.96 in 10.0 mi South 17.3 mph 24.2 mph N/A   Unknown
1:15 AM 55.4 °F 46.4 °F 72% 29.95 in 10.0 mi South 17.3 mph 23.0 mph N/A   Unknown
1:35 AM 55.4 °F 46.4 °F 72% 29.94 in 10.0 mi South 19.6 mph 25.3 mph N/A   Unknown
1:55 AM 55.4 °F 44.6 °F 67% 29.93 in 10.0 mi South 16.1 mph 25.3 mph N/A   Unknown
2:15 AM 55.4 °F 44.6 °F 67% 29.92 in 10.0 mi South 16.1 mph 25.3 mph N/A   Unknown
2:35 AM 55.4 °F 44.6 °F 67% 29.91 in 10.0 mi SSE 18.4 mph 24.2 mph N/A   Unknown
2:55 AM 55.4 °F 44.6 °F 67% 29.91 in 10.0 mi South 18.4 mph 26.5 mph N/A   Unknown
3:15 AM 55.4 °F 44.6 °F 67% 29.91 in 10.0 mi South 19.6 mph - N/A   Unknown
3:35 AM 55.4 °F 46.4 °F 72% 29.90 in 10.0 mi South 15.0 mph 24.2 mph N/A   Unknown
3:55 AM 55.4 °F 46.4 °F 72% 29.90 in 10.0 mi South 12.7 mph 21.9 mph N/A   Unknown
4:15 AM 53.6 °F 46.4 °F 77% 29.90 in 10.0 mi South 13.8 mph - N/A   Unknown
4:35 AM 53.6 °F 46.4 °F 77% 29.91 in 10.0 mi South 12.7 mph - N/A   Unknown
4:55 AM 53.6 °F 46.4 °F 77% 29.89 in 10.0 mi SSE 17.3 mph 21.9 mph N/A   Unknown
5:15 AM 53.6 °F 46.4 °F 77% 29.90 in 10.0 mi South 15.0 mph - N/A   Unknown
5:35 AM 53.6 °F 46.4 °F 77% 29.86 in 10.0 mi SSE 18.4 mph - N/A   Unknown
5:55 AM 53.6 °F 46.4 °F 77% 29.90 in 10.0 mi SSW 8.1 mph 17.3 mph N/A   Unknown
6:15 AM 55.4 °F 46.4 °F 72% 29.89 in 10.0 mi South 12.7 mph 19.6 mph N/A   Unknown
6:35 AM 55.4 °F 46.4 °F 72% 29.89 in 10.0 mi South 11.5 mph 16.1 mph N/A   Unknown
6:55 AM 55.4 °F 46.4 °F 72% 29.88 in 10.0 mi South 15.0 mph - N/A   Unknown
7:15 AM 55.4 °F 46.4 °F 72% 29.88 in 10.0 mi South 12.7 mph 21.9 mph N/A   Unknown
7:35 AM 53.6 °F 46.4 °F 77% 29.89 in 10.0 mi South 13.8 mph 19.6 mph N/A   Unknown
7:55 AM 53.6 °F 46.4 °F 77% 29.88 in 10.0 mi South 16.1 mph 20.7 mph N/A   Unknown
8:15 AM 55.4 °F 46.4 °F 72% 29.90 in 10.0 mi South 16.1 mph 23.0 mph N/A   Unknown
8:35 AM 55.4 °F 46.4 °F 72% 29.90 in 10.0 mi South 16.1 mph 23.0 mph N/A   Unknown
8:55 AM 57.2 °F 46.4 °F 67% 29.90 in 10.0 mi South 15.0 mph - N/A   Unknown
9:15 AM 59.0 °F 46.4 °F 63% 29.92 in 10.0 mi SSW 17.3 mph 23.0 mph N/A   Unknown
9:35 AM 60.8 °F 46.4 °F 59% 29.91 in 10.0 mi South 20.7 mph 27.6 mph N/A   Unknown
9:55 AM 62.6 °F 46.4 °F 55% 29.91 in 10.0 mi South 24.2 mph 28.8 mph N/A   Unknown
10:15 AM 62.6 °F 46.4 °F 55% 29.91 in 10.0 mi South 20.7 mph 28.8 mph N/A   Unknown
10:35 AM 64.4 °F 46.4 °F 52% 29.90 in 10.0 mi South 21.9 mph 29.9 mph N/A   Unknown
10:55 AM 64.4 °F 46.4 °F 52% 29.89 in 10.0 mi South 21.9 mph 31.1 mph N/A   Unknown
11:15 AM 66.2 °F 46.4 °F 49% 29.90 in 10.0 mi SSW 17.3 mph 24.2 mph N/A   Unknown
11:35 AM 66.2 °F 46.4 °F 49% 29.90 in 10.0 mi SW 17.3 mph 31.1 mph N/A   Unknown
11:55 AM 68.0 °F 46.4 °F 46% 29.89 in 10.0 mi SSW 23.0 mph 26.5 mph N/A   Unknown
12:15 PM 68.0 °F 46.4 °F 46% 29.89 in 10.0 mi SSW 18.4 mph 28.8 mph N/A   Unknown
12:35 PM 69.8 °F 48.2 °F 46% 29.88 in 10.0 mi SSW 19.6 mph 25.3 mph N/A   Unknown
12:55 PM 69.8 °F 50.0 °F 49% 29.88 in 10.0 mi SSW 16.1 mph 19.6 mph N/A   Unknown
1:15 PM 69.8 °F 48.2 °F 46% 29.88 in 10.0 mi SW 17.3 mph 21.9 mph N/A   Unknown
1:35 PM 69.8 °F 48.2 °F 46% 29.87 in 10.0 mi SW 12.7 mph 24.2 mph N/A   Unknown
1:55 PM 71.6 °F 50.0 °F 46% 29.86 in 10.0 mi SSW 16.1 mph 21.9 mph N/A   Unknown
2:15 PM 71.6 °F 50.0 °F 46% 29.85 in 10.0 mi SSW 13.8 mph 18.4 mph N/A   Unknown
2:35 PM 71.6 °F 50.0 °F 46% 29.84 in 10.0 mi SSW 11.5 mph 19.6 mph N/A   Unknown
2:55 PM 71.6 °F 50.0 °F 46% 29.84 in 10.0 mi SW 16.1 mph 19.6 mph N/A   Unknown
3:15 PM 73.4 °F 50.0 °F 44% 29.83 in 10.0 mi SW 8.1 mph 11.5 mph N/A   Unknown
3:35 PM 71.6 °F 50.0 °F 46% 29.83 in 10.0 mi WSW 8.1 mph - N/A   Unknown
3:55 PM 73.4 °F 50.0 °F 44% 29.83 in 10.0 mi SSW 11.5 mph - N/A   Unknown
4:15 PM 73.4 °F 50.0 °F 44% 29.82 in 10.0 mi SW 12.7 mph 18.4 mph N/A   Unknown
4:35 PM 73.4 °F 50.0 °F 44% 29.82 in 10.0 mi WSW 13.8 mph 19.6 mph N/A   Unknown
4:55 PM 73.4 °F 50.0 °F 44% 29.82 in 10.0 mi SSW 9.2 mph 12.7 mph N/A   Unknown
5:15 PM 71.6 °F 50.0 °F 46% 29.82 in 10.0 mi WSW 11.5 mph - N/A   Unknown
5:35 PM 71.6 °F 50.0 °F 46% 29.82 in 10.0 mi SW 8.1 mph - N/A   Unknown
5:55 PM 73.4 °F 50.0 °F 44% 29.82 in 10.0 mi SW 8.1 mph - N/A   Unknown
6:15 PM 71.6 °F 50.0 °F 46% 29.83 in 10.0 mi SSW 10.4 mph - N/A   Unknown
6:35 PM 71.6 °F 50.0 °F 46% 29.83 in 10.0 mi SSW 5.8 mph - N/A   Unknown
6:55 PM 71.6 °F 51.8 °F 50% 29.83 in 10.0 mi SSE 8.1 mph - N/A   Unknown
7:15 PM 69.8 °F 51.8 °F 53% 29.83 in 10.0 mi SSE 6.9 mph - N/A   Unknown
7:35 PM 68.0 °F 53.6 °F 60% 29.83 in 10.0 mi SSE 6.9 mph - N/A   Unknown
7:55 PM 68.0 °F 53.6 °F 60% 29.84 in 10.0 mi SSE 5.8 mph - N/A   Unknown
8:15 PM 68.0 °F 53.6 °F 60% 29.84 in 10.0 mi SSE 5.8 mph - N/A   Unknown
8:35 PM 64.4 °F 53.6 °F 68% 29.84 in 10.0 mi SSE 5.8 mph - N/A   Unknown
8:55 PM 64.4 °F 53.6 °F 68% 29.84 in 10.0 mi SSE 8.1 mph - N/A   Unknown
9:15 PM 64.4 °F 53.6 °F 68% 29.84 in 10.0 mi SSE 9.2 mph - N/A   Unknown
9:35 PM 64.4 °F 53.6 °F 68% 29.86 in 10.0 mi SSE 6.9 mph - N/A   Unknown
9:55 PM 62.6 °F 53.6 °F 72% 29.86 in 10.0 mi SSE 5.8 mph - N/A   Unknown
10:15 PM 62.6 °F 53.6 °F 72% 29.86 in 10.0 mi SSE 5.8 mph - N/A   Unknown
10:35 PM 62.6 °F 53.6 °F 72% 29.86 in 10.0 mi SE 5.8 mph - N/A   Unknown
10:55 PM 62.6 °F 53.6 °F 72% 29.87 in 10.0 mi SSE 6.9 mph - N/A   Unknown
11:15 PM 62.6 °F 53.6 °F 72% 29.87 in 10.0 mi SSE 6.9 mph - N/A   Unknown
11:35 PM 60.8 °F 53.6 °F 77% 29.87 in 10.0 mi SSE 5.8 mph - N/A   Unknown
11:55 PM 60.8 °F 53.6 °F 77% 29.87 in 10.0 mi SSE 5.8 mph - N/A   Unknown